#timestamp,LO_Frequency,Hit 
1503619215.8,286046994.4,N
1503619235.6,286046992.5,P
1503619255.4,286046995.9,N
1503619275.3,286046995.2,P
1503619295.1,286046996.7,N
1503619315.8,286047001.1,N
1503619335.7,286046999.5,N
1503619355.5,286046996.9,N
1503619375.3,286046999.7,N
1503619395.2,286047001.7,N
1503619415.9,286047001.1,N
1503619435.7,286046998.3,N
1503619455.6,286047000.6,N
1503619475.4,286046999.1,N
1503619495.2,286046999.3,N
1503619515.0,286046999.4,N
1503619516.0,286046999.4,N
1503619535.8,286047001.1,N
1503619555.6,286047002.1,N
1503619575.4,286047004.2,N
1503619595.3,286047000.3,N
1503619615.1,286047001.4,N
1503619635.8,286047003.1,N
1503619655.7,286047007.6,N
1503619675.5,286047004.6,N
1503619695.3,286047006.5,N
1503619715.2,286047003.0,N
1503619735.9,286047003.1,N
1503619755.7,286047005.3,N
1503619775.6,286047008.1,N
1503619795.4,286047012.4,P
1503619815.2,286047009.8,N
1503619835.1,286047011.6,N
1503619836.0,286047011.6,N
1503619855.8,286047009.6,N
1503619875.6,286047011.8,N
1503619895.5,286047010.0,N
1503619915.3,286047009.5,N
1503619935.1,286047009.9,N
1503619955.9,286047011.9,P
1503619975.7,286047000.2,N
1503619995.5,286046996.7,N
1503620015.4,286046995.4,N
1503620035.2,286046995.1,N
1503620055.0,286046997.3,N
1503620055.9,286046997.3,N
1503620075.8,286046995.1,N
1503620095.6,286046999.6,N
1503620115.4,286046997.4,N
1503620135.3,286046995.8,N
1503620155.1,286046997.0,N
1503620156.0,286046997.0,N
1503620175.8,286046997.2,N
1503620195.7,286046995.8,N
1503620215.5,286046995.1,N
1503620235.3,286046995.3,N
1503620255.1,286046997.6,N
1503620275.9,286046999.4,N
1503620295.7,286046999.9,N
1503620315.5,286047001.7,N
1503620335.4,286047001.7,N
1503620355.2,286046999.7,N
1503620375.0,286047000.3,N
1503620375.9,286047000.3,N
1503620395.8,286046998.7,N
1503620415.6,286046996.8,N
1503620435.4,286046997.7,N
1503620455.3,286046997.0,N
1503620475.1,286047000.7,N
1503620476.0,286047000.7,N
1503620495.8,286047000.7,N
1503620515.7,286046999.5,N
1503620535.5,286047000.9,N
1503620555.3,286047002.7,N
1503620575.2,286047004.0,N
1503620595.9,286047001.5,N
1503620615.7,286047004.4,N
1503620635.6,286047002.3,N
1503620655.4,286047004.0,N
1503620675.2,286047001.0,N
1503620695.1,286046998.3,N
1503620696.0,286046998.3,N
1503620715.8,286046998.7,N
1503620735.6,286047002.8,N
1503620755.4,286047002.7,N
1503620775.3,286047000.8,N
1503620795.1,286046997.0,N
1503620815.8,286046999.4,N
1503620835.7,286046998.5,N
1503620855.5,286047000.1,N
1503620875.3,286047001.2,N
1503620895.2,286046999.1,N
1503620915.9,286046994.9,N
1503620935.7,286046997.1,N
1503620955.6,286046999.0,N
1503620975.4,286046998.5,N
1503620995.2,286047003.5,N
1503621015.1,286047005.1,N
1503621016.0,286047005.1,N
1503621035.8,286047005.0,N
1503621055.6,286047004.9,N
1503621075.5,286047005.8,N
1503621095.3,286047004.7,N
1503621115.1,286047005.1,N
1503621135.8,286047006.0,N
1503621155.7,286047004.3,N
1503621175.5,286047002.3,N
1503621195.3,286047002.5,N
1503621215.2,286047000.1,N
1503621235.9,286047000.4,N
1503621255.7,286046999.1,N
1503621275.6,286046999.1,N
1503621295.4,286046996.7,N
1503621315.2,286046997.0,N
1503621335.1,286046997.8,N
1503621336.0,286046997.8,N
1503621355.8,286046997.3,N
1503621375.6,286046997.1,N
1503621395.5,286046997.2,N
1503621415.3,286046996.7,N
1503621435.1,286046997.1,N
1503621455.9,286046997.6,N
1503621475.7,286046995.5,N
1503621495.5,286046995.1,N
1503621515.3,286046997.8,N
1503621535.2,286046995.6,N
1503621555.0,286046991.7,N
1503621555.9,286046991.7,N
1503621575.7,286046992.3,N
1503621595.6,286046992.0,N
1503621615.4,286046990.3,N
1503621635.2,286046989.4,N
1503621655.1,286046990.0,N
1503621656.0,286046990.0,N
1503621675.8,286046989.8,N
1503621695.6,286046993.0,N
1503621715.5,286046988.6,P
1503621735.3,286046993.2,N
1503621755.1,286046989.2,P
1503621775.9,286046990.8,P
1503621795.7,286046999.1,N
1503621815.6,286047001.1,N
1503621835.4,286047004.0,N
1503621855.2,286047003.0,N
1503621875.0,286047003.2,N
1503621875.9,286047003.2,N
1503621895.8,286047006.0,N
1503621915.6,286047005.0,N
1503621935.4,286047006.4,N
1503621955.3,286047007.9,N
1503621975.1,286047010.2,N
1503621995.8,286047009.6,N
1503622015.7,286047008.8,N
1503622035.5,286047009.0,N
1503622055.3,286047011.7,N
1503622075.2,286047010.1,N
1503622095.9,286047009.6,N
1503622115.7,286047008.8,N
1503622135.6,286047009.2,N
1503622155.4,286047004.8,N
1503622175.2,286047004.7,N
1503622195.0,286047009.2,N
1503622196.0,286047009.2,N
1503622215.8,286047007.7,N
1503622235.6,286047011.9,N
1503622255.4,286047014.0,N
1503622275.3,286047010.2,N
1503622295.1,286047010.0,N
1503622315.8,286047010.9,N
1503622335.7,286047012.8,N
1503622355.5,286047013.8,P
1503622375.3,286047003.6,N
1503622395.2,286047002.9,N
1503622415.0,286047007.5,N
1503622415.9,286047007.5,N
1503622435.7,286047006.2,N
1503622455.6,286047009.2,N
1503622475.4,286047005.2,N
1503622495.2,286047006.9,N
1503622515.1,286047009.4,P
1503622516.0,286047009.4,P
1503622535.8,286047002.2,N
1503622555.6,286046998.2,N
1503622575.5,286046998.1,N
1503622595.3,286047002.7,N
1503622615.1,286046998.5,N
1503622635.9,286047001.5,N
1503622655.7,286046999.9,N
1503622675.5,286047000.7,N
1503622695.4,286046999.2,N
1503622715.2,286046998.1,N
1503622735.0,286047000.2,N
1503622735.9,286047000.2,N
1503622755.8,286047000.7,N
1503622775.6,286047004.2,N
1503622795.4,286047004.2,N
